Year,Month,Day,Hour,Minute,Value (Times are PST for insolation in W/m^2)
2010,03,01,00,00,0.00
2010,03,01,00,01,0.00
2010,03,01,00,02,0.00
2010,03,01,00,03,0.00
2010,03,01,00,04,0.00
2010,03,01,00,05,0.00
2010,03,01,00,06,0.00
2010,03,01,00,07,0.00
2010,03,01,00,08,0.00
2010,03,01,00,09,0.00
2010,03,01,00,10,0.00
2010,03,01,00,11,0.00
2010,03,01,00,12,0.00
2010,03,01,00,13,0.00
2010,03,01,00,18,0.00
2010,03,01,00,19,0.00
2010,03,01,00,20,0.00
2010,03,01,00,21,0.00
2010,03,01,00,22,0.00
2010,03,01,00,23,0.00
2010,03,01,00,24,0.00
2010,03,01,00,25,0.00
2010,03,01,00,26,0.00
2010,03,01,00,27,0.00
2010,03,01,00,28,0.00
2010,03,01,00,29,0.00
2010,03,01,00,30,0.00
2010,03,01,00,31,0.00
2010,03,01,00,32,0.00
2010,03,01,00,33,0.00
2010,03,01,00,34,0.00
2010,03,01,00,35,0.00
2010,03,01,00,36,0.00
2010,03,01,00,37,0.00
2010,03,01,00,38,0.00
2010,03,01,00,39,0.00
2010,03,01,00,40,0.00
2010,03,01,00,41,0.00
2010,03,01,00,42,0.00
2010,03,01,00,43,0.00
2010,03,01,00,44,0.00
2010,03,01,00,45,0.00
2010,03,01,00,46,0.00
2010,03,01,00,47,0.00
2010,03,01,00,48,0.00
2010,03,01,00,49,0.00
2010,03,01,00,50,0.00
2010,03,01,00,51,0.00
2010,03,01,00,52,0.00
2010,03,01,00,53,0.00
2010,03,01,00,54,0.00
2010,03,01,00,55,0.00
2010,03,01,00,56,0.00
2010,03,01,00,57,0.00
2010,03,01,00,58,0.00
2010,03,01,00,59,0.00
2010,03,01,01,00,0.00
2010,03,01,01,01,0.00
2010,03,01,01,02,0.00
2010,03,01,01,03,0.00
2010,03,01,01,04,0.00
2010,03,01,01,05,0.00
2010,03,01,01,06,0.00
2010,03,01,01,07,0.00
2010,03,01,01,08,0.00
2010,03,01,01,09,0.00
2010,03,01,01,10,0.00
2010,03,01,01,11,0.00
2010,03,01,01,12,0.00
2010,03,01,01,13,0.00
2010,03,01,01,14,0.00
2010,03,01,01,15,0.00
2010,03,01,01,16,0.00
2010,03,01,01,17,0.00
2010,03,01,01,18,0.00
2010,03,01,01,19,0.00
2010,03,01,01,20,0.00
2010,03,01,01,21,0.00
2010,03,01,01,22,0.00
2010,03,01,01,23,0.00
2010,03,01,01,24,0.00
2010,03,01,01,25,0.00
2010,03,01,01,26,0.00
2010,03,01,01,27,0.00
2010,03,01,01,28,0.00
2010,03,01,01,29,0.00
2010,03,01,01,30,0.00
2010,03,01,01,31,0.00
2010,03,01,01,32,0.00
2010,03,01,01,33,0.00
2010,03,01,01,34,0.00
2010,03,01,01,35,0.00
2010,03,01,01,36,0.00
2010,03,01,01,37,0.00
2010,03,01,01,38,0.00
2010,03,01,01,39,0.00
2010,03,01,01,40,0.00
2010,03,01,01,41,0.00
2010,03,01,01,42,0.00
2010,03,01,01,43,0.00
2010,03,01,01,44,0.00
2010,03,01,01,45,0.00
2010,03,01,01,46,0.00
2010,03,01,01,47,0.00
2010,03,01,01,48,0.00
2010,03,01,01,49,0.00
2010,03,01,01,50,0.00
2010,03,01,01,51,0.00
2010,03,01,01,52,0.00
2010,03,01,01,53,0.00
2010,03,01,01,54,0.00
2010,03,01,01,55,0.00
2010,03,01,01,56,0.00
2010,03,01,01,57,0.00
2010,03,01,01,58,0.00
2010,03,01,01,59,0.00
2010,03,01,02,00,0.00
2010,03,01,02,01,0.00
2010,03,01,02,02,0.00
2010,03,01,02,03,0.00
2010,03,01,02,04,0.00
2010,03,01,02,05,0.00
2010,03,01,02,06,0.00
2010,03,01,02,07,0.00
2010,03,01,02,08,0.00
2010,03,01,02,09,0.00
2010,03,01,02,10,0.00
2010,03,01,02,11,0.00
2010,03,01,02,12,0.00
2010,03,01,02,13,0.00
2010,03,01,02,14,0.00
2010,03,01,02,15,0.00
2010,03,01,02,16,0.00
2010,03,01,02,17,0.00
2010,03,01,02,18,0.00
2010,03,01,02,19,0.00
2010,03,01,02,20,0.00
2010,03,01,02,21,0.00
2010,03,01,02,22,0.00
2010,03,01,02,23,0.00
2010,03,01,02,24,0.00
2010,03,01,02,25,0.00
2010,03,01,02,26,0.00
2010,03,01,02,27,0.00
2010,03,01,02,28,0.00
2010,03,01,02,29,0.00
2010,03,01,02,30,0.00
2010,03,01,02,31,0.00
2010,03,01,02,32,0.00
2010,03,01,02,33,0.00
2010,03,01,02,34,0.00
2010,03,01,02,35,0.00
2010,03,01,02,36,0.00
2010,03,01,02,37,0.00
2010,03,01,02,38,0.00
2010,03,01,02,39,0.00
2010,03,01,02,40,0.00
2010,03,01,02,41,0.00
2010,03,01,02,42,0.00
2010,03,01,02,43,0.00
2010,03,01,02,44,0.00
2010,03,01,02,45,0.00
2010,03,01,02,46,0.00
2010,03,01,02,47,0.00
2010,03,01,02,48,0.00
2010,03,01,02,49,0.00
2010,03,01,02,50,0.00
2010,03,01,02,51,0.00
2010,03,01,02,52,0.00
2010,03,01,02,53,0.00
2010,03,01,02,54,0.00
2010,03,01,02,55,0.00
2010,03,01,02,56,0.00
2010,03,01,02,57,0.00
2010,03,01,02,58,0.00
2010,03,01,02,59,0.00
2010,03,01,03,00,0.00
2010,03,01,03,01,0.00
2010,03,01,03,02,0.00
2010,03,01,03,03,0.00
2010,03,01,03,04,0.00
2010,03,01,03,05,0.00
2010,03,01,03,06,0.00
2010,03,01,03,07,0.00
2010,03,01,03,08,0.00
2010,03,01,03,09,0.00
2010,03,01,03,10,0.00
2010,03,01,03,11,0.00
2010,03,01,03,12,0.00
2010,03,01,03,13,0.00
2010,03,01,03,14,0.00
2010,03,01,03,15,0.00
2010,03,01,03,16,0.00
2010,03,01,03,17,0.00
2010,03,01,03,18,0.00
2010,03,01,03,19,0.00
2010,03,01,03,20,0.00
2010,03,01,03,21,0.00
2010,03,01,03,22,0.00
2010,03,01,03,23,0.00
2010,03,01,03,24,0.00
2010,03,01,03,25,0.00
2010,03,01,03,26,0.00
2010,03,01,03,27,0.00
2010,03,01,03,28,0.00
2010,03,01,03,29,0.00
2010,03,01,03,30,0.00
2010,03,01,03,31,0.00
2010,03,01,03,32,0.00
2010,03,01,03,33,0.00
2010,03,01,03,34,0.00
2010,03,01,03,35,0.00
2010,03,01,03,36,0.00
2010,03,01,03,37,0.00
2010,03,01,03,38,0.00
2010,03,01,03,39,0.00
2010,03,01,03,40,0.00
2010,03,01,03,41,0.00
2010,03,01,03,42,0.00
2010,03,01,03,43,0.00
2010,03,01,03,44,0.00
2010,03,01,03,45,0.00
2010,03,01,03,46,0.00
2010,03,01,03,47,0.00
2010,03,01,03,48,0.00
2010,03,01,03,49,0.00
2010,03,01,03,50,0.00
2010,03,01,03,51,0.00
2010,03,01,03,52,0.00
2010,03,01,03,53,0.00
2010,03,01,03,54,0.00
2010,03,01,03,55,0.00
2010,03,01,03,56,0.00
2010,03,01,03,57,0.00
2010,03,01,03,58,0.00
2010,03,01,03,59,0.00
2010,03,01,04,00,0.00
2010,03,01,04,01,0.00
2010,03,01,04,02,0.00
2010,03,01,04,03,0.00
2010,03,01,04,04,0.00
2010,03,01,04,05,0.00
2010,03,01,04,06,0.00
2010,03,01,04,07,0.00
2010,03,01,04,08,0.00
2010,03,01,04,09,0.00
2010,03,01,04,10,0.00
2010,03,01,04,11,0.00
2010,03,01,04,12,0.00
2010,03,01,04,13,0.00
2010,03,01,04,14,0.00
2010,03,01,04,15,0.00
2010,03,01,04,16,0.00
2010,03,01,04,17,0.00
2010,03,01,04,18,0.00
2010,03,01,04,19,0.00
2010,03,01,04,20,0.00
2010,03,01,04,21,0.00
2010,03,01,04,22,0.00
2010,03,01,04,23,0.00
2010,03,01,04,24,0.00
2010,03,01,04,25,0.00
2010,03,01,04,26,0.00
2010,03,01,04,27,0.00
2010,03,01,04,28,0.00
2010,03,01,04,29,0.00
2010,03,01,04,30,0.00
2010,03,01,04,31,0.00
2010,03,01,04,32,0.00
2010,03,01,04,33,0.00
2010,03,01,04,34,0.00
2010,03,01,04,35,0.00
2010,03,01,04,36,0.00
2010,03,01,04,37,0.00
2010,03,01,04,38,0.00
2010,03,01,04,39,0.00
2010,03,01,04,40,0.00
2010,03,01,04,41,0.00
2010,03,01,04,42,0.00
2010,03,01,04,43,0.00
2010,03,01,04,44,0.00
2010,03,01,04,45,0.00
2010,03,01,04,46,0.00
2010,03,01,04,47,0.00
2010,03,01,04,48,0.00
2010,03,01,04,49,0.00
2010,03,01,04,50,0.00
2010,03,01,04,51,0.00
2010,03,01,04,52,0.00
2010,03,01,04,53,0.00
2010,03,01,04,54,0.00
2010,03,01,04,55,0.00
2010,03,01,04,56,0.00
2010,03,01,04,57,0.00
2010,03,01,04,58,0.00
2010,03,01,04,59,0.00
2010,03,01,05,00,0.00
2010,03,01,05,01,0.00
2010,03,01,05,02,0.00
2010,03,01,05,03,0.00
2010,03,01,05,04,0.00
2010,03,01,05,05,0.00
2010,03,01,05,06,0.00
2010,03,01,05,07,0.00
2010,03,01,05,08,0.00
2010,03,01,05,09,0.00
2010,03,01,05,10,0.00
2010,03,01,05,11,0.00
2010,03,01,05,12,0.00
2010,03,01,05,13,0.00
2010,03,01,05,14,0.00
2010,03,01,05,15,0.00
2010,03,01,05,16,0.00
2010,03,01,05,17,0.00
2010,03,01,05,18,0.00
2010,03,01,05,19,0.00
2010,03,01,05,20,0.00
2010,03,01,05,21,0.00
2010,03,01,05,22,0.00
2010,03,01,05,23,0.00
2010,03,01,05,24,0.00
2010,03,01,05,25,0.00
2010,03,01,05,26,0.00
2010,03,01,05,27,0.00
2010,03,01,05,28,0.00
2010,03,01,05,29,0.00
2010,03,01,05,30,0.00
2010,03,01,05,31,0.00
2010,03,01,05,32,0.00
2010,03,01,05,33,0.00
2010,03,01,05,34,0.00
2010,03,01,05,35,0.00
2010,03,01,05,36,0.00
2010,03,01,05,37,0.00
2010,03,01,05,38,0.00
2010,03,01,05,39,0.00
2010,03,01,05,40,0.00
2010,03,01,05,41,0.00
2010,03,01,05,42,0.00
2010,03,01,05,43,0.00
2010,03,01,05,44,0.00
2010,03,01,05,45,0.00
2010,03,01,05,46,0.00
2010,03,01,05,47,0.00
2010,03,01,05,48,0.00
2010,03,01,05,49,0.00
2010,03,01,05,50,0.00
2010,03,01,05,51,0.00
2010,03,01,05,52,0.00
2010,03,01,05,53,0.00
2010,03,01,05,54,0.00
2010,03,01,05,55,0.00
2010,03,01,05,56,0.00
2010,03,01,05,57,0.00
2010,03,01,05,58,0.00
2010,03,01,05,59,0.00
2010,03,01,06,00,0.00
2010,03,01,06,01,0.00
2010,03,01,06,02,0.00
2010,03,01,06,03,0.00
2010,03,01,06,04,0.00
2010,03,01,06,05,0.00
2010,03,01,06,06,0.00
2010,03,01,06,07,0.00
2010,03,01,06,08,0.00
2010,03,01,06,09,0.00
2010,03,01,06,10,0.00
2010,03,01,06,11,0.00
2010,03,01,06,12,0.00
2010,03,01,06,13,0.00
2010,03,01,06,14,0.00
2010,03,01,06,15,0.00
2010,03,01,06,16,0.00
2010,03,01,06,17,0.00
2010,03,01,06,18,0.00
2010,03,01,06,19,0.00
2010,03,01,06,20,0.00
2010,03,01,06,21,0.00
2010,03,01,06,22,0.00
2010,03,01,06,23,0.00
2010,03,01,06,24,0.00
2010,03,01,06,25,0.00
2010,03,01,06,26,0.00
2010,03,01,06,27,0.00
2010,03,01,06,28,0.00
2010,03,01,06,29,0.00
2010,03,01,06,30,0.00
2010,03,01,06,31,0.00
2010,03,01,06,32,0.00
2010,03,01,06,33,0.00
2010,03,01,06,34,0.00
2010,03,01,06,35,0.00
2010,03,01,06,36,0.00
2010,03,01,06,37,0.00
2010,03,01,06,38,0.00
2010,03,01,06,39,0.00
2010,03,01,06,40,0.00
2010,03,01,06,41,0.00
2010,03,01,06,42,0.00
2010,03,01,06,43,0.00
2010,03,01,06,44,0.00
2010,03,01,06,45,0.00
2010,03,01,06,46,0.00
2010,03,01,06,47,0.00
2010,03,01,06,48,0.00
2010,03,01,06,49,0.00
2010,03,01,06,50,0.00
2010,03,01,06,51,0.00
2010,03,01,06,52,0.00
2010,03,01,06,53,0.00
2010,03,01,06,54,0.00
2010,03,01,06,55,0.00
2010,03,01,06,56,0.00
2010,03,01,06,57,0.00
2010,03,01,06,58,0.00
2010,03,01,06,59,0.00
2010,03,01,07,00,0.00
2010,03,01,07,01,0.00
2010,03,01,07,02,0.00
2010,03,01,07,03,0.00
2010,03,01,07,04,0.00
2010,03,01,07,05,0.00
2010,03,01,07,06,5.00
2010,03,01,07,07,5.00
2010,03,01,07,08,5.00
2010,03,01,07,09,5.00
2010,03,01,07,10,7.00
2010,03,01,07,11,7.00
2010,03,01,07,12,7.00
2010,03,01,07,13,7.00
2010,03,01,07,14,7.00
2010,03,01,07,15,8.90
2010,03,01,07,16,9.00
2010,03,01,07,17,9.00
2010,03,01,07,18,9.00
2010,03,01,07,19,9.00
2010,03,01,07,20,9.00
2010,03,01,07,21,10.90
2010,03,01,07,22,11.00
2010,03,01,07,23,11.00
2010,03,01,07,24,11.00
2010,03,01,07,25,11.90
2010,03,01,07,26,12.00
2010,03,01,07,27,12.00
2010,03,01,07,28,12.00
2010,03,01,07,29,13.90
2010,03,01,07,30,14.00
2010,03,01,07,31,14.00
2010,03,01,07,32,14.00
2010,03,01,07,33,15.90
2010,03,01,07,34,16.00
2010,03,01,07,35,16.00
2010,03,01,07,36,17.90
2010,03,01,07,37,18.00
2010,03,01,07,38,19.00
2010,03,01,07,39,19.00
2010,03,01,07,40,20.90
2010,03,01,07,41,21.00
2010,03,01,07,42,21.00
2010,03,01,07,43,22.90
2010,03,01,07,44,23.00
2010,03,01,07,45,23.00
2010,03,01,07,46,25.00
2010,03,01,07,47,26.00
2010,03,01,07,48,26.00
2010,03,01,07,49,28.00
2010,03,01,07,50,28.00
2010,03,01,07,51,30.00
2010,03,01,07,52,30.00
2010,03,01,07,53,30.00
2010,03,01,07,54,30.00
2010,03,01,07,55,30.00
2010,03,01,07,56,32.00
2010,03,01,07,57,32.00
2010,03,01,07,58,33.00
2010,03,01,07,59,33.00
2010,03,01,08,00,33.00
2010,03,01,08,01,37.00
2010,03,01,08,02,37.00
2010,03,01,08,03,39.00
2010,03,01,08,04,40.00
2010,03,01,08,05,42.00
2010,03,01,08,06,42.00
2010,03,01,08,07,42.00
2010,03,01,08,08,44.00
2010,03,01,08,09,44.00
2010,03,01,08,10,44.00
2010,03,01,08,11,44.00
2010,03,01,08,12,44.00
2010,03,01,08,13,44.00
2010,03,01,08,14,44.00
2010,03,01,08,15,44.00
2010,03,01,08,16,46.00
2010,03,01,08,17,46.00
2010,03,01,08,18,46.00
2010,03,01,08,19,46.00
2010,03,01,08,20,46.00
2010,03,01,08,21,46.00
2010,03,01,08,22,46.00
2010,03,01,08,23,46.00
2010,03,01,08,24,46.00
2010,03,01,08,25,47.00
2010,03,01,08,26,47.00
2010,03,01,08,27,49.00
2010,03,01,08,28,51.00
2010,03,01,08,29,53.00
2010,03,01,08,30,54.00
2010,03,01,08,31,56.00
2010,03,01,08,32,58.00
2010,03,01,08,33,62.00
2010,03,01,08,34,63.00
2010,03,01,08,35,63.00
2010,03,01,08,36,65.00
2010,03,01,08,37,67.00
2010,03,01,08,38,67.00
2010,03,01,08,39,68.90
2010,03,01,08,40,70.00
2010,03,01,08,41,70.00
2010,03,01,08,42,72.00
2010,03,01,08,43,72.00
2010,03,01,08,44,72.00
2010,03,01,08,45,72.00
2010,03,01,08,46,72.00
2010,03,01,08,47,70.00
2010,03,01,08,48,70.00
2010,03,01,08,49,69.00
2010,03,01,08,50,69.00
2010,03,01,08,51,69.00
2010,03,01,08,52,69.00
2010,03,01,08,53,69.00
2010,03,01,08,54,69.00
2010,03,01,08,55,69.00
2010,03,01,08,56,69.00
2010,03,01,08,57,69.90
2010,03,01,08,58,71.90
2010,03,01,08,59,74.00
2010,03,01,09,00,75.90
2010,03,01,09,01,79.00
2010,03,01,09,02,80.90
2010,03,01,09,03,84.00
2010,03,01,09,04,88.00
2010,03,01,09,05,91.00
2010,03,01,09,06,95.00
2010,03,01,09,07,98.00
2010,03,01,09,08,100.00
2010,03,01,09,09,104.00
2010,03,01,09,10,105.00
2010,03,01,09,11,105.00
2010,03,01,09,12,105.00
2010,03,01,09,13,105.00
2010,03,01,09,14,105.00
2010,03,01,09,15,107.00
2010,03,01,09,16,109.00
2010,03,01,09,17,111.00
2010,03,01,09,18,111.00
2010,03,01,09,19,111.00
2010,03,01,09,20,109.00
2010,03,01,09,21,107.00
2010,03,01,09,22,105.00
2010,03,01,09,23,105.00
2010,03,01,09,24,105.00
2010,03,01,09,25,105.00
2010,03,01,09,26,106.90
2010,03,01,09,27,109.00
2010,03,01,09,28,109.00
2010,03,01,09,29,109.00
2010,03,01,09,30,110.90
2010,03,01,09,31,111.00
2010,03,01,09,32,111.00
2010,03,01,09,33,111.00
2010,03,01,09,34,109.10
2010,03,01,09,35,109.00
2010,03,01,09,36,109.00
2010,03,01,09,37,111.00
2010,03,01,09,38,113.00
2010,03,01,09,39,114.00
2010,03,01,09,40,118.00
2010,03,01,09,41,118.00
2010,03,01,09,42,120.00
2010,03,01,09,43,120.90
2010,03,01,09,44,121.00
2010,03,01,09,45,120.00
2010,03,01,09,46,118.00
2010,03,01,09,47,116.00
2010,03,01,09,48,116.00
2010,03,01,09,49,117.90
2010,03,01,09,50,118.00
2010,03,01,09,51,119.80
2010,03,01,09,52,120.90
2010,03,01,09,53,123.00
2010,03,01,09,54,124.90
2010,03,01,09,55,128.00
2010,03,01,09,56,131.80
2010,03,01,09,57,134.90
2010,03,01,09,58,138.80
2010,03,01,09,59,142.00
2010,03,01,10,00,144.00
2010,03,01,10,01,146.00
2010,03,01,10,02,144.00
2010,03,01,10,03,144.00
2010,03,01,10,04,141.00
2010,03,01,10,05,137.20
2010,03,01,10,06,135.00
2010,03,01,10,07,134.00
2010,03,01,10,08,134.00
2010,03,01,10,09,137.00
2010,03,01,10,10,141.80
2010,03,01,10,11,149.00
2010,03,01,10,12,156.00
2010,03,01,10,13,162.60
2010,03,01,10,14,169.00
2010,03,01,10,15,173.80
2010,03,01,10,16,174.00
2010,03,01,10,17,181.00
2010,03,01,10,18,181.00
2010,03,01,10,19,179.00
2010,03,01,10,20,176.00
2010,03,01,10,21,172.00
2010,03,01,10,22,167.00
2010,03,01,10,23,162.00
2010,03,01,10,24,158.00
2010,03,01,10,25,155.00
2010,03,01,10,26,155.90
2010,03,01,10,27,160.00
2010,03,01,10,28,166.60
2010,03,01,10,29,172.00
2010,03,01,10,30,178.00
2010,03,01,10,31,179.00
2010,03,01,10,32,178.10
2010,03,01,10,33,176.00
2010,03,01,10,34,174.00
2010,03,01,10,35,174.00
2010,03,01,10,36,179.00
2010,03,01,10,37,185.00
2010,03,01,10,38,187.70
2010,03,01,10,39,192.00
2010,03,01,10,40,193.00
2010,03,01,10,41,195.00
2010,03,01,10,42,195.00
2010,03,01,10,43,199.00
2010,03,01,10,44,205.60
2010,03,01,10,45,211.00
2010,03,01,10,46,214.00
2010,03,01,10,47,216.00
2010,03,01,10,48,216.00
2010,03,01,10,49,213.00
2010,03,01,10,50,209.00
2010,03,01,10,51,209.00
2010,03,01,10,52,206.00
2010,03,01,10,53,211.00
2010,03,01,10,54,211.00
2010,03,01,10,55,211.00
2010,03,01,10,56,216.00
2010,03,01,10,57,216.00
2010,03,01,10,58,209.00
2010,03,01,10,59,204.00
2010,03,01,11,00,199.00
2010,03,01,11,01,197.00
2010,03,01,11,02,193.00
2010,03,01,11,03,192.00
2010,03,01,11,04,188.00
2010,03,01,11,05,185.30
2010,03,01,11,06,183.10
2010,03,01,11,07,185.00
2010,03,01,11,08,185.90
2010,03,01,11,09,192.00
2010,03,01,11,10,198.30
2010,03,01,11,11,205.30
2010,03,01,11,12,212.60
2010,03,01,11,13,216.00
2010,03,01,11,14,218.00
2010,03,01,11,15,218.00
2010,03,01,11,16,216.10
2010,03,01,11,17,213.00
2010,03,01,11,18,213.00
2010,03,01,11,19,214.00
2010,03,01,11,20,216.00
2010,03,01,11,21,217.80
2010,03,01,11,22,220.00
2010,03,01,11,23,220.00
2010,03,01,11,24,220.00
2010,03,01,11,25,214.00
2010,03,01,11,26,213.00
2010,03,01,11,27,209.00
2010,03,01,11,28,207.20
2010,03,01,11,29,204.10
2010,03,01,11,30,199.00
2010,03,01,11,31,190.90
2010,03,01,11,32,181.40
2010,03,01,11,33,181.00
2010,03,01,11,34,167.00
2010,03,01,11,35,165.00
2010,03,01,11,36,162.00
2010,03,01,11,37,158.00
2010,03,01,11,38,156.00
2010,03,01,11,39,153.30
2010,03,01,11,40,151.10
2010,03,01,11,41,146.00
2010,03,01,11,42,146.00
2010,03,01,11,43,136.10
2010,03,01,11,44,132.10
2010,03,01,11,45,130.00
2010,03,01,11,46,130.00
2010,03,01,11,47,131.80
2010,03,01,11,48,132.00
2010,03,01,11,49,130.00
2010,03,01,11,50,130.00
2010,03,01,11,51,130.00
2010,03,01,11,52,134.00
2010,03,01,11,53,139.00
2010,03,01,11,54,144.00
2010,03,01,11,55,149.00
2010,03,01,11,56,149.00
2010,03,01,11,57,146.00
2010,03,01,11,58,141.00
2010,03,01,11,59,134.00
2010,03,01,12,00,130.40
2010,03,01,12,01,128.00
2010,03,01,12,02,131.80
2010,03,01,12,03,135.00
2010,03,01,12,04,136.80
2010,03,01,12,05,137.00
2010,03,01,12,06,139.00
2010,03,01,12,07,139.00
2010,03,01,12,08,139.00
2010,03,01,12,09,139.00
2010,03,01,12,10,144.00
2010,03,01,12,11,148.00
2010,03,01,12,12,149.00
2010,03,01,12,13,146.10
2010,03,01,12,14,142.00
2010,03,01,12,15,141.10
2010,03,01,12,16,141.90
2010,03,01,12,17,142.00
2010,03,01,12,18,141.00
2010,03,01,12,19,141.00
2010,03,01,12,20,144.00
2010,03,01,12,21,151.00
2010,03,01,12,22,162.00
2010,03,01,12,23,174.00
2010,03,01,12,24,183.00
2010,03,01,12,25,188.00
2010,03,01,12,26,192.00
2010,03,01,12,27,192.00
2010,03,01,12,28,188.00
2010,03,01,12,29,185.00
2010,03,01,12,30,181.00
2010,03,01,12,31,181.00
2010,03,01,12,32,169.00
2010,03,01,12,33,163.00
2010,03,01,12,34,160.00
2010,03,01,12,35,158.00
2010,03,01,12,36,158.00
2010,03,01,12,37,156.20
2010,03,01,12,38,156.00
2010,03,01,12,39,156.00
2010,03,01,12,40,159.60
2010,03,01,12,41,165.00
2010,03,01,12,42,169.00
2010,03,01,12,43,165.00
2010,03,01,12,44,162.00
2010,03,01,12,45,162.00
2010,03,01,12,46,163.00
2010,03,01,12,47,165.00
2010,03,01,12,48,165.00
2010,03,01,12,49,167.00
2010,03,01,12,50,169.00
2010,03,01,12,51,171.00
2010,03,01,12,52,176.00
2010,03,01,12,53,178.00
2010,03,01,12,54,179.00
2010,03,01,12,55,179.00
2010,03,01,12,56,179.00
2010,03,01,12,57,179.00
2010,03,01,12,58,190.00
2010,03,01,12,59,195.00
2010,03,01,13,00,204.00
2010,03,01,13,01,218.00
2010,03,01,13,02,223.00
2010,03,01,13,03,223.00
2010,03,01,13,04,223.00
2010,03,01,13,05,223.00
2010,03,01,13,06,223.00
2010,03,01,13,07,207.70
2010,03,01,13,08,200.30
2010,03,01,13,09,197.00
2010,03,01,13,10,195.00
2010,03,01,13,11,192.00
2010,03,01,13,12,188.00
2010,03,01,13,13,183.00
2010,03,01,13,14,179.20
2010,03,01,13,15,176.00
2010,03,01,13,16,172.40
2010,03,01,13,17,167.00
2010,03,01,13,18,160.00
2010,03,01,13,19,158.00
2010,03,01,13,20,162.00
2010,03,01,13,21,167.00
2010,03,01,13,22,176.00
2010,03,01,13,23,181.00
2010,03,01,13,24,179.00
2010,03,01,13,25,174.00
2010,03,01,13,26,171.00
2010,03,01,13,27,169.00
2010,03,01,13,28,169.00
2010,03,01,13,29,176.00
2010,03,01,13,30,179.00
2010,03,01,13,31,179.00
2010,03,01,13,32,192.00
2010,03,01,13,33,199.00
2010,03,01,13,34,204.00
2010,03,01,13,35,207.00
2010,03,01,13,36,209.00
2010,03,01,13,37,211.00
2010,03,01,13,38,209.20
2010,03,01,13,39,207.00
2010,03,01,13,40,207.00
2010,03,01,13,41,200.00
2010,03,01,13,42,195.00
2010,03,01,13,43,190.00
2010,03,01,13,44,185.00
2010,03,01,13,45,185.00
2010,03,01,13,46,187.90
2010,03,01,13,47,193.00
2010,03,01,13,48,199.00
2010,03,01,13,49,200.00
2010,03,01,13,50,204.00
2010,03,01,13,51,206.00
2010,03,01,13,52,209.00
2010,03,01,13,53,210.90
2010,03,01,13,54,211.00
2010,03,01,13,55,209.00
2010,03,01,13,56,212.80
2010,03,01,13,57,213.00
2010,03,01,13,58,213.00
2010,03,01,13,59,220.00
2010,03,01,14,00,216.00
2010,03,01,14,01,214.00
2010,03,01,14,02,214.00
2010,03,01,14,03,213.00
2010,03,01,14,04,209.00
2010,03,01,14,05,207.00
2010,03,01,14,06,206.00
2010,03,01,14,07,204.00
2010,03,01,14,08,202.00
2010,03,01,14,09,200.00
2010,03,01,14,10,197.00
2010,03,01,14,11,193.00
2010,03,01,14,12,188.00
2010,03,01,14,13,181.00
2010,03,01,14,14,176.00
2010,03,01,14,15,176.00
2010,03,01,14,16,181.00
2010,03,01,14,17,193.00
2010,03,01,14,18,207.00
2010,03,01,14,19,207.00
2010,03,01,14,20,227.00
2010,03,01,14,21,227.00
2010,03,01,14,22,225.00
2010,03,01,14,23,218.00
2010,03,01,14,24,207.00
2010,03,01,14,25,197.50
2010,03,01,14,26,186.00
2010,03,01,14,27,179.00
2010,03,01,14,28,174.00
2010,03,01,14,29,171.00
2010,03,01,14,30,167.00
2010,03,01,14,31,167.00
2010,03,01,14,32,162.00
2010,03,01,14,33,162.00
2010,03,01,14,34,151.00
2010,03,01,14,35,144.40
2010,03,01,14,36,139.00
2010,03,01,14,37,134.00
2010,03,01,14,38,134.00
2010,03,01,14,39,134.00
2010,03,01,14,40,142.00
2010,03,01,14,41,158.00
2010,03,01,14,42,158.00
2010,03,01,14,43,167.00
2010,03,01,14,44,167.00
2010,03,01,14,45,172.00
2010,03,01,14,46,179.00
2010,03,01,14,47,183.00
2010,03,01,14,48,185.00
2010,03,01,14,49,186.00
2010,03,01,14,50,183.00
2010,03,01,14,51,178.00
2010,03,01,14,52,172.30
2010,03,01,14,53,167.00
2010,03,01,14,54,162.00
2010,03,01,14,55,156.00
2010,03,01,14,56,156.00
2010,03,01,14,57,151.00
2010,03,01,14,58,155.00
2010,03,01,14,59,169.00
2010,03,01,15,00,171.00
2010,03,01,15,01,174.00
2010,03,01,15,02,181.00
2010,03,01,15,03,188.00
2010,03,01,15,04,197.00
2010,03,01,15,05,204.00
2010,03,01,15,06,209.00
2010,03,01,15,07,211.00
2010,03,01,15,08,213.00
2010,03,01,15,09,218.00
2010,03,01,15,10,218.00
2010,03,01,15,11,236.00
2010,03,01,15,12,236.00
2010,03,01,15,13,234.00
2010,03,01,15,14,234.00
2010,03,01,15,15,253.00
2010,03,01,15,16,248.00
2010,03,01,15,17,236.00
2010,03,01,15,18,223.00
2010,03,01,15,19,225.00
2010,03,01,15,20,218.00
2010,03,01,15,21,225.00
2010,03,01,15,22,216.00
2010,03,01,15,23,216.00
2010,03,01,15,24,204.00
2010,03,01,15,25,192.00
2010,03,01,15,26,202.00
2010,03,01,15,27,202.00
2010,03,01,15,28,213.00
2010,03,01,15,29,213.00
2010,03,01,15,30,227.00
2010,03,01,15,31,221.00
2010,03,01,15,32,192.00
2010,03,01,15,33,178.00
2010,03,01,15,34,167.00
2010,03,01,15,35,158.00
2010,03,01,15,36,148.00
2010,03,01,15,37,144.00
2010,03,01,15,38,144.00
2010,03,01,15,39,125.00
2010,03,01,15,40,121.00
2010,03,01,15,41,123.00
2010,03,01,15,42,134.00
2010,03,01,15,43,139.00
2010,03,01,15,44,139.00
2010,03,01,15,45,134.00
2010,03,01,15,46,134.00
2010,03,01,15,47,135.00
2010,03,01,15,48,141.00
2010,03,01,15,49,146.00
2010,03,01,15,50,151.00
2010,03,01,15,51,153.00
2010,03,01,15,52,155.00
2010,03,01,15,53,153.00
2010,03,01,15,54,153.00
2010,03,01,15,55,154.90
2010,03,01,15,56,153.00
2010,03,01,15,57,146.00
2010,03,01,15,58,142.20
2010,03,01,15,59,141.10
2010,03,01,16,00,139.00
2010,03,01,16,01,135.00
2010,03,01,16,02,139.00
2010,03,01,16,03,144.00
2010,03,01,16,04,146.00
2010,03,01,16,05,142.00
2010,03,01,16,06,137.00
2010,03,01,16,07,134.00
2010,03,01,16,08,134.00
2010,03,01,16,09,132.00
2010,03,01,16,10,128.00
2010,03,01,16,11,127.00
2010,03,01,16,12,121.00
2010,03,01,16,13,116.00
2010,03,01,16,14,116.00
2010,03,01,16,15,109.30
2010,03,01,16,16,104.00
2010,03,01,16,17,98.00
2010,03,01,16,18,97.00
2010,03,01,16,19,97.00
2010,03,01,16,20,97.00
2010,03,01,16,21,97.00
2010,03,01,16,22,97.90
2010,03,01,16,23,98.00
2010,03,01,16,24,100.00
2010,03,01,16,25,100.00
2010,03,01,16,26,100.00
2010,03,01,16,27,100.00
2010,03,01,16,28,100.00
2010,03,01,16,29,100.00
2010,03,01,16,30,100.00
2010,03,01,16,31,98.20
2010,03,01,16,32,95.00
2010,03,01,16,33,93.00
2010,03,01,16,34,91.00
2010,03,01,16,35,90.00
2010,03,01,16,36,88.00
2010,03,01,16,37,88.00
2010,03,01,16,38,86.00
2010,03,01,16,39,84.00
2010,03,01,16,40,83.00
2010,03,01,16,41,81.00
2010,03,01,16,42,77.00
2010,03,01,16,43,74.20
2010,03,01,16,44,70.00
2010,03,01,16,45,69.00
2010,03,01,16,46,65.00
2010,03,01,16,47,63.00
2010,03,01,16,48,63.00
2010,03,01,16,49,62.00
2010,03,01,16,50,62.00
2010,03,01,16,51,60.00
2010,03,01,16,52,60.00
2010,03,01,16,53,60.00
2010,03,01,16,54,60.00
2010,03,01,16,55,56.00
2010,03,01,16,56,53.00
2010,03,01,16,57,51.00
2010,03,01,16,58,49.00
2010,03,01,16,59,47.00
2010,03,01,17,00,47.00
2010,03,01,17,01,47.00
2010,03,01,17,02,47.00
2010,03,01,17,03,49.00
2010,03,01,17,04,47.00
2010,03,01,17,05,47.00
2010,03,01,17,06,46.00
2010,03,01,17,07,46.00
2010,03,01,17,08,44.00
2010,03,01,17,09,44.00
2010,03,01,17,10,44.00
2010,03,01,17,11,42.00
2010,03,01,17,12,42.00
2010,03,01,17,13,42.00
2010,03,01,17,14,42.00
2010,03,01,17,15,40.10
2010,03,01,17,16,40.00
2010,03,01,17,17,39.00
2010,03,01,17,18,35.00
2010,03,01,17,19,33.20
2010,03,01,17,20,32.00
2010,03,01,17,21,32.00
2010,03,01,17,22,28.20
2010,03,01,17,23,26.00